This is the latest recevied weather packets stored in our database for station/object K5WNG. If no packets are shown the sender has not sent any weather packets the latest 10 day(s).
| Time | Temp. | Humidity | Pressure | Rain* | Wind** | Luminosity | Snow |
|---|---|---|---|---|---|---|---|
| 1777632022 | 15° C | 99% | 1013.7 hPa | 5.59 mm | - | 0 W/m² | - |
| 1777631721 | 15° C | 99% | 1013.3 hPa | 5.08 mm | - | 0 W/m² | - |
| 1777631418 | 15° C | 99% | 1012.4 hPa | 4.06 mm | - | 0 W/m² | - |
| 1777631119 | 15° C | 99% | 1012.3 hPa | 3.81 mm | - | 0 W/m² | - |
| 1777630819 | 15° C | 99% | 1012.6 hPa | 3.81 mm | - | 0 W/m² | - |
| 1777630519 | 15° C | 99% | 1013.3 hPa | 3.3 mm | - | 0 W/m² | - |
| 1777630219 | 15° C | 99% | 1013.3 hPa | 3.81 mm | - | 0 W/m² | - |
| 1777629919 | 15° C | 99% | 1012.7 hPa | 4.06 mm | - | 0 W/m² | - |
| 1777629622 | 15° C | 99% | 1012.4 hPa | 4.32 mm | - | 0 W/m² | - |
| 1777629319 | 15° C | 99% | 1012.9 hPa | 4.32 mm | - | 0 W/m² | - |
| 1777629019 | 15° C | 99% | 1012.9 hPa | 4.32 mm | - | 0 W/m² | - |
| 1777628722 | 15° C | 99% | 1012.6 hPa | 4.32 mm | - | 0 W/m² | - |
| 1777628419 | 15° C | 99% | 1012.6 hPa | 4.32 mm | - | 0 W/m² | - |
| 1777628120 | 15° C | 99% | 1012.3 hPa | 4.32 mm | - | 0 W/m² | - |
| 1777627822 | 15° C | 99% | 1011.4 hPa | 4.06 mm | - | 0 W/m² | - |
| 1777627524 | 15° C | 99% | 1010.9 hPa | 3.81 mm | - | 0 W/m² | - |
| 1777626920 | 15.56° C | 99% | 1013.2 hPa | 3.3 mm | - | 0 W/m² | - |
| 1777626620 | 15.56° C | 99% | 1013.5 hPa | 2.54 mm | - | 0 W/m² | - |
| 1777626320 | 15.56° C | 99% | 1013.2 hPa | 2.03 mm | - | 0 W/m² | - |
| 1777626025 | 15.56° C | 99% | 1012.6 hPa | 1.52 mm | - | 0 W/m² | - |
| 1777625720 | 15.56° C | 99% | 1012.2 hPa | 1.52 mm | - | 0 W/m² | - |
| 1777625423 | 15.56° C | 99% | 1012.2 hPa | 1.27 mm | - | 0 W/m² | - |
| 1777625123 | 15.56° C | 99% | 1012.4 hPa | 1.27 mm | - | 0 W/m² | - |
| 1777624820 | 15.56° C | 99% | 1012.3 hPa | 1.27 mm | - | 0 W/m² | - |
| 1777624520 | 15.56° C | 99% | 1012 hPa | 1.02 mm | - | 0 W/m² | - |
* Rain latest hour (hover to see other rain measurements)
** Current wind speed in m/s (hover to see current wind gust speed)